• In Uzbekistan
  • List of Countries
  • For 7 days
  • Water Temperature
  • Satellite Maps
  • Weather Map
  • Weather Widgets
  • user-avatar
    Login

    Hourly Weather Korçe

    Today, 19 January, Thursday

    Time Temperature Precipitation Wind Pressure Humidity
    00:00 -2°C° 1.2 mm 2 mps 665 mmHg 95%
    01:00 -2°C° 1.2 mm 2 mps 665 mmHg 95%
    02:00 -3°C° 0.3 mm 2 mps 665 mmHg 95%
    03:00 -3°C° 0.3 mm 2 mps 665 mmHg 94%
    04:00 -3°C° 0.3 mm 2 mps 665 mmHg 94%
    05:00 -4°C° 0 mm 2 mps 666 mmHg 94%
    06:00 -4°C° 0 mm 2 mps 666 mmHg 93%
    07:00 -5°C° 0 mm 2 mps 666 mmHg 93%
    08:00 -3°C° 0 mm 2 mps 667 mmHg 93%
    09:00 -2°C° 0 mm 2 mps 668 mmHg 92%
    10:00 -1°C° 0 mm 2 mps 669 mmHg 92%
    11:00 -1°C° 0.1 mm 2 mps 669 mmHg 91%
    12:00 -1°C° 0.1 mm 2 mps 669 mmHg 91%
    13:00 +1°C° 0.1 mm 2 mps 669 mmHg 90%
    14:00 -1°C° 0 mm 2 mps 669 mmHg 91%
    15:00 -1°C° 0 mm 2 mps 669 mmHg 92%
    16:00 -2°C° 0 mm 2 mps 669 mmHg 93%
    17:00 -3°C° 0 mm 2 mps 669 mmHg 93%
    18:00 -4°C° 0 mm 2 mps 669 mmHg 93%
    19:00 -5°C° 0 mm 2 mps 669 mmHg 94%
    20:00 -5°C° 0 mm 2 mps 670 mmHg 93%
    21:00 -5°C° 0 mm 2 mps 670 mmHg 93%
    22:00 -6°C° 0 mm 2 mps 670 mmHg 93%
    23:00 -6°C° 0 mm 2 mps 670 mmHg 93%

    Tomorrow, 20 January, Friday

    Time Temperature Precipitation Wind Pressure Humidity
    00:00 -6°C° 0 mm 2 mps 670 mmHg 93%
    01:00 -6°C° 0 mm 2 mps 670 mmHg 93%
    02:00 -6°C° 0 mm 2 mps 670 mmHg 92%
    03:00 -7°C° 0 mm 2 mps 670 mmHg 92%
    04:00 -7°C° 0 mm 2 mps 670 mmHg 92%
    05:00 -7°C° 0 mm 2 mps 670 mmHg 92%
    06:00 -7°C° 0 mm 2 mps 671 mmHg 92%
    07:00 -7°C° 0 mm 2 mps 671 mmHg 92%
    08:00 -5°C° 0 mm 2 mps 672 mmHg 90%
    09:00 -3°C° 0 mm 2 mps 672 mmHg 89%
    10:00 -2°C° 0 mm 2 mps 673 mmHg 87%
    11:00 -1°C° 0 mm 2 mps 673 mmHg 86%
    12:00 -1°C° 0 mm 2 mps 673 mmHg 86%
    13:00 +2°C° 0 mm 1 mps 673 mmHg 85%
    14:00 +2°C° 0 mm 1 mps 673 mmHg 87%
    15:00 +1°C° 0 mm 1 mps 672 mmHg 88%
    16:00 +1°C° 0 mm 1 mps 672 mmHg 90%
    17:00 -1°C° 0 mm 1 mps 672 mmHg 91%
    18:00 -5°C° 0 mm 2 mps 672 mmHg 92%
    19:00 -6°C° 0 mm 2 mps 672 mmHg 93%
    20:00 -6°C° 0 mm 2 mps 672 mmHg 92%
    21:00 -7°C° 0 mm 2 mps 672 mmHg 92%
    22:00 -7°C° 0 mm 2 mps 672 mmHg 92%
    23:00 -7°C° 0 mm 2 mps 671 mmHg 91%

    Day after tomorrow, 21 January, Saturday

    Time Temperature Precipitation Wind Pressure Humidity
    00:00 -7°C° 0 mm 2 mps 671 mmHg 91%
    01:00 -7°C° 0 mm 2 mps 671 mmHg 90%
    02:00 -7°C° 0 mm 2 mps 671 mmHg 90%
    03:00 -7°C° 0 mm 2 mps 671 mmHg 90%
    04:00 -8°C° 0 mm 2 mps 671 mmHg 90%
    05:00 -8°C° 0 mm 2 mps 671 mmHg 90%
    06:00 -8°C° 0 mm 2 mps 671 mmHg 89%
    07:00 -8°C° 0 mm 2 mps 670 mmHg 89%
    08:00 -3°C° 0 mm 1 mps 671 mmHg 87%
    09:00 -1°C° 0 mm 1 mps 672 mmHg 85%
    10:00 +1°C° 0 mm 1 mps 673 mmHg 83%
    11:00 +2°C° 0 mm 1 mps 673 mmHg 83%
    12:00 +3°C° 0 mm 1 mps 672 mmHg 83%
    13:00 +3°C° 0 mm 1 mps 672 mmHg 82%
    14:00 +3°C° 0 mm 1 mps 672 mmHg 85%
    15:00 +2°C° 0 mm 1 mps 671 mmHg 87%
    16:00 +1°C° 0 mm 1 mps 671 mmHg 90%
    17:00 -1°C° 0 mm 1 mps 671 mmHg 91%
    18:00 -2°C° 0 mm 1 mps 670 mmHg 92%
    19:00 -6°C° 0 mm 2 mps 670 mmHg 93%
    20:00 -6°C° 0 mm 2 mps 670 mmHg 92%
    21:00 -6°C° 0 mm 2 mps 670 mmHg 92%
    22:00 -7°C° 0 mm 2 mps 670 mmHg 91%
    23:00 -7°C° 0 mm 2 mps 670 mmHg 91%

    22 January, Sunday

    Time Temperature Precipitation Wind Pressure Humidity
    00:00 -7°C° 0 mm 2 mps 670 mmHg 90%
    01:00 -7°C° 0 mm 2 mps 670 mmHg 89%
    02:00 -7°C° 0 mm 2 mps 670 mmHg 89%
    03:00 -7°C° 0 mm 2 mps 670 mmHg 88%
    04:00 -7°C° 0 mm 2 mps 670 mmHg 88%
    05:00 -7°C° 0 mm 2 mps 671 mmHg 88%
    06:00 -7°C° 0 mm 2 mps 671 mmHg 87%
    07:00 -7°C° 0 mm 2 mps 671 mmHg 87%
    08:00 -5°C° 0 mm 2 mps 672 mmHg 85%
    09:00 -3°C° 0 mm 2 mps 673 mmHg 84%
    10:00 -1°C° 0 mm 2 mps 673 mmHg 82%
    11:00 +1°C° 0 mm 2 mps 673 mmHg 82%
    12:00 +1°C° 0 mm 2 mps 673 mmHg 81%
    13:00 +2°C° 0 mm 2 mps 673 mmHg 81%
    14:00 +1°C° 0 mm 2 mps 673 mmHg 83%
    15:00 +1°C° 0 mm 2 mps 673 mmHg 86%
    16:00 -1°C° 0 mm 2 mps 673 mmHg 88%
    17:00 -2°C° 0 mm 2 mps 672 mmHg 89%
    18:00 -3°C° 0 mm 2 mps 672 mmHg 90%
    19:00 -4°C° 0 mm 2 mps 672 mmHg 91%
    20:00 -5°C° 0 mm 2 mps 672 mmHg 90%
    21:00 -5°C° 0 mm 2 mps 673 mmHg 90%
    22:00 -5°C° 0 mm 2 mps 673 mmHg 90%
    23:00 -5°C° 0 mm 2 mps 672 mmHg 90%

    23 January, Monday

    Time Temperature Precipitation Wind Pressure Humidity
    00:00 -5°C° 0 mm 2 mps 672 mmHg 90%
    01:00 -5°C° 0 mm 2 mps 672 mmHg 90%
    02:00 -6°C° 0 mm 2 mps 672 mmHg 89%
    03:00 -6°C° 0 mm 2 mps 672 mmHg 89%
    04:00 -6°C° 0 mm 2 mps 672 mmHg 89%
    05:00 -5°C° 0 mm 2 mps 672 mmHg 89%
    06:00 -5°C° 0 mm 2 mps 672 mmHg 88%
    07:00 -5°C° 0 mm 2 mps 672 mmHg 88%
    08:00 -4°C° 0 mm 2 mps 672 mmHg 87%
    09:00 -3°C° 0 mm 2 mps 672 mmHg 85%
    10:00 -1°C° 0 mm 3 mps 673 mmHg 84%
    11:00 -1°C° 0.1 mm 2 mps 672 mmHg 85%
    12:00 -1°C° 0.1 mm 2 mps 672 mmHg 87%
    13:00 +1°C° 0.1 mm 2 mps 671 mmHg 88%
    14:00 -1°C° 0.1 mm 2 mps 671 mmHg 89%
    15:00 -1°C° 0.1 mm 2 mps 671 mmHg 90%
    16:00 -1°C° 0.1 mm 2 mps 670 mmHg 91%
    17:00 -1°C° 0 mm 2 mps 670 mmHg 92%
    18:00 -2°C° 0 mm 2 mps 670 mmHg 92%
    19:00 -2°C° 0 mm 2 mps 669 mmHg 92%
    20:00 -2°C° 0.2 mm 2 mps 669 mmHg 93%
    21:00 -2°C° 0.2 mm 2 mps 669 mmHg 93%
    22:00 -2°C° 0.2 mm 2 mps 668 mmHg 93%
    23:00 -2°C° 0.5 mm 3 mps 668 mmHg 93%

    24 January, Tuesday

    Time Temperature Precipitation Wind Pressure Humidity
    00:00 -2°C° 0.5 mm 3 mps 667 mmHg 93%
    01:00 -2°C° 0.5 mm 3 mps 666 mmHg 94%
    02:00 -2°C° 1 mm 3 mps 666 mmHg 94%
    03:00 -2°C° 1 mm 3 mps 665 mmHg 94%
    04:00 -2°C° 1 mm 3 mps 664 mmHg 94%
    05:00 -2°C° 1.2 mm 3 mps 664 mmHg 94%
    06:00 -4°C° 1.2 mm 3 mps 663 mmHg 94%
    07:00 -4°C° 1.2 mm 3 mps 663 mmHg 94%
    08:00 -2°C° 0.8 mm 3 mps 663 mmHg 94%
    09:00 -2°C° 0.8 mm 3 mps 663 mmHg 94%
    10:00 -2°C° 0.8 mm 3 mps 662 mmHg 94%
    11:00 -1°C° 1.6 mm 3 mps 662 mmHg 94%
    12:00 -1°C° 1.6 mm 3 mps 662 mmHg 93%
    13:00 -1°C° 1.6 mm 3 mps 662 mmHg 93%
    14:00 -1°C° 0.2 mm 2 mps 662 mmHg 93%
    15:00 -1°C° 0.2 mm 2 mps 661 mmHg 94%
    16:00 -1°C° 0.2 mm 2 mps 661 mmHg 94%
    17:00 -2°C° 0 mm 2 mps 661 mmHg 94%
    18:00 -3°C° 0 mm 2 mps 661 mmHg 94%
    19:00 -4°C° 0 mm 2 mps 661 mmHg 94%
    20:00 -4°C° 0 mm 2 mps 661 mmHg 94%
    21:00 -5°C° 0 mm 2 mps 661 mmHg 94%
    22:00 -5°C° 0 mm 2 mps 661 mmHg 94%
    23:00 -5°C° 0 mm 2 mps 660 mmHg 94%
    Show more